Year,Month,Day,Hour,Minute,Value (Times are PST for temperature in C)
2019,05,27,00,00,14.50
2019,05,27,00,01,14.50
2019,05,27,00,02,14.40
2019,05,27,00,03,14.40
2019,05,27,00,04,14.40
2019,05,27,00,05,14.30
2019,05,27,00,06,14.30
2019,05,27,00,07,14.30
2019,05,27,00,08,14.30
2019,05,27,00,09,14.30
2019,05,27,00,10,14.30
2019,05,27,00,11,14.20
2019,05,27,00,12,14.20
2019,05,27,00,13,14.20
2019,05,27,00,14,14.20
2019,05,27,00,15,14.20
2019,05,27,00,16,14.10
2019,05,27,00,17,14.10
2019,05,27,00,18,14.10
2019,05,27,00,19,14.00
2019,05,27,00,20,14.00
2019,05,27,00,21,14.00
2019,05,27,00,22,14.00
2019,05,27,00,23,13.90
2019,05,27,00,24,13.90
2019,05,27,00,25,13.90
2019,05,27,00,26,13.90
2019,05,27,00,27,13.90
2019,05,27,00,28,13.80
2019,05,27,00,29,13.80
2019,05,27,00,30,13.80
2019,05,27,00,31,13.70
2019,05,27,00,32,13.70
2019,05,27,00,33,13.70
2019,05,27,00,34,13.60
2019,05,27,00,35,13.60
2019,05,27,00,36,13.60
2019,05,27,00,37,13.60
2019,05,27,00,38,13.50
2019,05,27,00,39,13.50
2019,05,27,00,40,13.50
2019,05,27,00,41,13.50
2019,05,27,00,42,13.60
2019,05,27,00,43,13.60
2019,05,27,00,44,13.60
2019,05,27,00,45,13.70
2019,05,27,00,46,13.70
2019,05,27,00,47,13.70
2019,05,27,00,48,13.70
2019,05,27,00,49,13.70
2019,05,27,00,50,13.60
2019,05,27,00,51,13.60
2019,05,27,00,52,13.60
2019,05,27,00,53,13.60
2019,05,27,00,54,13.60
2019,05,27,00,55,13.60
2019,05,27,00,56,13.60
2019,05,27,00,57,13.60
2019,05,27,00,58,13.60
2019,05,27,00,59,13.60
2019,05,27,01,00,13.60
2019,05,27,01,01,13.60
2019,05,27,01,02,13.60
2019,05,27,01,03,13.60
2019,05,27,01,04,13.60
2019,05,27,01,05,13.60
2019,05,27,01,06,13.70
2019,05,27,01,07,13.70
2019,05,27,01,08,13.70
2019,05,27,01,09,13.70
2019,05,27,01,10,13.70
2019,05,27,01,11,13.70
2019,05,27,01,12,13.70
2019,05,27,01,13,13.70
2019,05,27,01,14,13.70
2019,05,27,01,15,13.60
2019,05,27,01,16,13.60
2019,05,27,01,17,13.60
2019,05,27,01,18,13.60
2019,05,27,01,19,13.60
2019,05,27,01,20,13.60
2019,05,27,01,21,13.60
2019,05,27,01,22,13.60
2019,05,27,01,23,13.60
2019,05,27,01,24,13.60
2019,05,27,01,25,13.60
2019,05,27,01,26,13.60
2019,05,27,01,27,13.60
2019,05,27,01,28,13.60
2019,05,27,01,29,13.70
2019,05,27,01,30,13.70
2019,05,27,01,31,13.70
2019,05,27,01,32,13.70
2019,05,27,01,33,13.70
2019,05,27,01,34,13.70
2019,05,27,01,35,13.70
2019,05,27,01,36,13.70
2019,05,27,01,37,13.70
2019,05,27,01,38,13.70
2019,05,27,01,39,13.70
2019,05,27,01,40,13.60
2019,05,27,01,41,13.60
2019,05,27,01,42,13.50
2019,05,27,01,43,13.50
2019,05,27,01,44,13.50
2019,05,27,01,45,13.40
2019,05,27,01,46,13.40
2019,05,27,01,47,13.40
2019,05,27,01,48,13.40
2019,05,27,01,49,13.40
2019,05,27,01,50,13.30
2019,05,27,01,51,13.30
2019,05,27,01,52,13.30
2019,05,27,01,53,13.30
2019,05,27,01,54,13.30
2019,05,27,01,55,13.30
2019,05,27,01,56,13.30
2019,05,27,01,57,13.30
2019,05,27,01,58,13.30
2019,05,27,01,59,13.30
2019,05,27,02,00,13.30
2019,05,27,02,01,13.30
2019,05,27,02,02,13.30
2019,05,27,02,03,13.20
2019,05,27,02,04,13.20
2019,05,27,02,05,13.20
2019,05,27,02,06,13.20
2019,05,27,02,07,13.20
2019,05,27,02,08,13.20
2019,05,27,02,09,13.20
2019,05,27,02,10,13.10
2019,05,27,02,11,13.10
2019,05,27,02,12,13.10
2019,05,27,02,13,13.10
2019,05,27,02,14,13.10
2019,05,27,02,15,13.10
2019,05,27,02,16,13.10
2019,05,27,02,17,13.10
2019,05,27,02,18,13.10
2019,05,27,02,19,13.10
2019,05,27,02,20,13.20
2019,05,27,02,21,13.20
2019,05,27,02,22,13.30
2019,05,27,02,23,13.40
2019,05,27,02,24,13.40
2019,05,27,02,25,13.50
2019,05,27,02,26,13.50
2019,05,27,02,27,13.50
2019,05,27,02,28,13.50
2019,05,27,02,29,13.50
2019,05,27,02,30,13.50
2019,05,27,02,31,13.50
2019,05,27,02,32,13.40
2019,05,27,02,33,13.40
2019,05,27,02,34,13.50
2019,05,27,02,35,13.50
2019,05,27,02,36,13.50
2019,05,27,02,37,13.50
2019,05,27,02,38,13.50
2019,05,27,02,39,13.50
2019,05,27,02,40,13.50
2019,05,27,02,41,13.50
2019,05,27,02,42,13.50
2019,05,27,02,43,13.50
2019,05,27,02,44,13.50
2019,05,27,02,45,13.50
2019,05,27,02,46,13.50
2019,05,27,02,47,13.50
2019,05,27,02,48,13.50
2019,05,27,02,49,13.50
2019,05,27,02,50,13.50
2019,05,27,02,51,13.60
2019,05,27,02,52,13.70
2019,05,27,02,53,13.80
2019,05,27,02,54,13.90
2019,05,27,02,55,14.10
2019,05,27,02,56,14.30
2019,05,27,02,57,14.50
2019,05,27,02,58,14.60
2019,05,27,02,59,14.80
2019,05,27,03,00,14.90
2019,05,27,03,01,15.00
2019,05,27,03,02,15.20
2019,05,27,03,03,15.30
2019,05,27,03,04,15.30
2019,05,27,03,05,15.40
2019,05,27,03,06,15.40
2019,05,27,03,07,15.50
2019,05,27,03,08,15.50
2019,05,27,03,09,15.50
2019,05,27,03,10,15.60
2019,05,27,03,11,15.60
2019,05,27,03,12,15.60
2019,05,27,03,13,15.70
2019,05,27,03,14,15.70
2019,05,27,03,15,15.70
2019,05,27,03,16,15.70
2019,05,27,03,17,15.70
2019,05,27,03,18,15.60
2019,05,27,03,19,15.50
2019,05,27,03,20,15.50
2019,05,27,03,21,15.40
2019,05,27,03,22,15.30
2019,05,27,03,23,15.30
2019,05,27,03,24,15.20
2019,05,27,03,25,15.10
2019,05,27,03,26,15.00
2019,05,27,03,27,15.00
2019,05,27,03,28,14.90
2019,05,27,03,29,14.80
2019,05,27,03,30,14.80
2019,05,27,03,31,14.80
2019,05,27,03,32,14.80
2019,05,27,03,33,14.70
2019,05,27,03,34,14.70
2019,05,27,03,35,14.70
2019,05,27,03,36,14.60
2019,05,27,03,37,14.60
2019,05,27,03,38,14.50
2019,05,27,03,39,14.50
2019,05,27,03,40,14.40
2019,05,27,03,41,14.30
2019,05,27,03,42,14.30
2019,05,27,03,43,14.20
2019,05,27,03,44,14.20
2019,05,27,03,45,14.10
2019,05,27,03,46,14.10
2019,05,27,03,47,14.10
2019,05,27,03,48,14.00
2019,05,27,03,49,13.90
2019,05,27,03,50,13.90
2019,05,27,03,51,13.80
2019,05,27,03,52,13.70
2019,05,27,03,53,13.70
2019,05,27,03,54,13.60
2019,05,27,03,55,13.60
2019,05,27,03,56,13.50
2019,05,27,03,57,13.50
2019,05,27,03,58,13.40
2019,05,27,03,59,13.40
2019,05,27,04,00,13.30
2019,05,27,04,01,13.30
2019,05,27,04,02,13.30
2019,05,27,04,03,13.30
2019,05,27,04,04,13.20
2019,05,27,04,05,13.20
2019,05,27,04,06,13.20
2019,05,27,04,07,13.20
2019,05,27,04,08,13.10
2019,05,27,04,09,13.10
2019,05,27,04,10,13.20
2019,05,27,04,11,13.20
2019,05,27,04,12,13.10
2019,05,27,04,13,13.10
2019,05,27,04,14,13.10
2019,05,27,04,15,13.10
2019,05,27,04,16,13.10
2019,05,27,04,17,13.10
2019,05,27,04,18,13.10
2019,05,27,04,19,13.00
2019,05,27,04,20,13.00
2019,05,27,04,21,13.00
2019,05,27,04,22,12.90
2019,05,27,04,23,12.90
2019,05,27,04,24,12.90
2019,05,27,04,25,12.90
2019,05,27,04,26,12.90
2019,05,27,04,27,12.80
2019,05,27,04,28,12.80
2019,05,27,04,29,12.80
2019,05,27,04,30,12.70
2019,05,27,04,31,12.70
2019,05,27,04,32,12.70
2019,05,27,04,33,12.60
2019,05,27,04,34,12.60
2019,05,27,04,35,12.60
2019,05,27,04,36,12.50
2019,05,27,04,37,12.50
2019,05,27,04,38,12.40
2019,05,27,04,39,12.40
2019,05,27,04,40,12.40
2019,05,27,04,41,12.40
2019,05,27,04,42,12.40
2019,05,27,04,43,12.40
2019,05,27,04,44,12.30
2019,05,27,04,45,12.30
2019,05,27,04,46,12.30
2019,05,27,04,47,12.30
2019,05,27,04,48,12.30
2019,05,27,04,49,12.30
2019,05,27,04,50,12.30
2019,05,27,04,51,12.30
2019,05,27,04,52,12.30
2019,05,27,04,53,12.20
2019,05,27,04,54,12.20
2019,05,27,04,55,12.20
2019,05,27,04,56,12.20
2019,05,27,04,57,12.20
2019,05,27,04,58,12.20
2019,05,27,04,59,12.20
2019,05,27,05,00,12.20
2019,05,27,05,01,12.20
2019,05,27,05,02,12.20
2019,05,27,05,03,12.20
2019,05,27,05,04,12.20
2019,05,27,05,05,12.20
2019,05,27,05,06,12.20
2019,05,27,05,07,12.20
2019,05,27,05,08,12.20
2019,05,27,05,09,12.20
2019,05,27,05,10,12.20
2019,05,27,05,11,12.20
2019,05,27,05,12,12.10
2019,05,27,05,13,12.10
2019,05,27,05,14,12.10
2019,05,27,05,15,12.10
2019,05,27,05,16,12.10
2019,05,27,05,17,12.10
2019,05,27,05,18,12.10
2019,05,27,05,19,12.10
2019,05,27,05,20,12.10
2019,05,27,05,21,12.10
2019,05,27,05,22,12.10
2019,05,27,05,23,12.10
2019,05,27,05,24,12.10
2019,05,27,05,25,12.10
2019,05,27,05,26,12.10
2019,05,27,05,27,12.10
2019,05,27,05,28,12.10
2019,05,27,05,29,12.10
2019,05,27,05,30,12.10
2019,05,27,05,31,12.10
2019,05,27,05,32,12.10
2019,05,27,05,33,12.10
2019,05,27,05,34,12.10
2019,05,27,05,35,12.10
2019,05,27,05,36,12.00
2019,05,27,05,37,12.10
2019,05,27,05,38,12.10
2019,05,27,05,39,12.10
2019,05,27,05,40,12.10
2019,05,27,05,41,12.10
2019,05,27,05,42,12.10
2019,05,27,05,43,12.10
2019,05,27,05,44,12.10
2019,05,27,05,45,12.20
2019,05,27,05,46,12.20
2019,05,27,05,47,12.20
2019,05,27,05,48,12.20
2019,05,27,05,49,12.20
2019,05,27,05,50,12.20
2019,05,27,05,51,12.20
2019,05,27,05,52,12.20
2019,05,27,05,53,12.20
2019,05,27,05,54,12.20
2019,05,27,05,55,12.10
2019,05,27,05,56,12.10
2019,05,27,05,57,12.10
2019,05,27,05,58,12.10
2019,05,27,05,59,12.10
2019,05,27,06,00,12.10
2019,05,27,06,01,12.10
2019,05,27,06,02,12.10
2019,05,27,06,03,12.10
2019,05,27,06,04,12.10
2019,05,27,06,05,12.10
2019,05,27,06,06,12.10
2019,05,27,06,07,12.10
2019,05,27,06,08,12.00
2019,05,27,06,09,12.10
2019,05,27,06,10,12.00
2019,05,27,06,11,12.00
2019,05,27,06,12,12.00
2019,05,27,06,13,12.00
2019,05,27,06,14,12.00
2019,05,27,06,15,12.00
2019,05,27,06,16,12.00
2019,05,27,06,17,12.00
2019,05,27,06,18,12.10
2019,05,27,06,19,12.10
2019,05,27,06,20,12.10
2019,05,27,06,21,12.10
2019,05,27,06,22,12.10
2019,05,27,06,23,12.20
2019,05,27,06,24,12.20
2019,05,27,06,25,12.20
2019,05,27,06,26,12.20
2019,05,27,06,27,12.30
2019,05,27,06,28,12.30
2019,05,27,06,29,12.30
2019,05,27,06,30,12.30
2019,05,27,06,31,12.30
2019,05,27,06,32,12.30
2019,05,27,06,33,12.30
2019,05,27,06,34,12.30
2019,05,27,06,35,12.30
2019,05,27,06,36,12.30
2019,05,27,06,37,12.30
2019,05,27,06,38,12.40
2019,05,27,06,39,12.40
2019,05,27,06,40,12.40
2019,05,27,06,41,12.50
2019,05,27,06,42,12.50
2019,05,27,06,43,12.60
2019,05,27,06,44,12.60
2019,05,27,06,45,12.70
2019,05,27,06,46,12.70
2019,05,27,06,47,12.80
2019,05,27,06,48,12.80
2019,05,27,06,49,12.80
2019,05,27,06,50,12.90
2019,05,27,06,51,12.90
2019,05,27,06,52,13.00
2019,05,27,06,53,13.00
2019,05,27,06,54,13.00
2019,05,27,06,55,13.10
2019,05,27,06,56,13.10
2019,05,27,06,57,13.10
2019,05,27,06,58,13.10
2019,05,27,06,59,13.20
2019,05,27,07,00,13.20
2019,05,27,07,01,13.30
2019,05,27,07,02,13.30
2019,05,27,07,03,13.40
2019,05,27,07,04,13.40
2019,05,27,07,05,13.50
2019,05,27,07,06,13.50
2019,05,27,07,07,13.60
2019,05,27,07,08,13.60
2019,05,27,07,09,13.70
2019,05,27,07,10,13.70
2019,05,27,07,11,13.80
2019,05,27,07,12,13.90
2019,05,27,07,13,14.00
2019,05,27,07,14,14.10
2019,05,27,07,15,14.20
2019,05,27,07,16,14.30
2019,05,27,07,17,14.40
2019,05,27,07,18,14.50
2019,05,27,07,19,14.60
2019,05,27,07,20,14.80
2019,05,27,07,21,14.90
2019,05,27,07,22,15.00
2019,05,27,07,23,15.10
2019,05,27,07,24,15.20
2019,05,27,07,25,15.30
2019,05,27,07,26,15.40
2019,05,27,07,27,15.50
2019,05,27,07,28,15.50
2019,05,27,07,29,15.60
2019,05,27,07,30,15.70
2019,05,27,07,31,15.80
2019,05,27,07,32,15.80
2019,05,27,07,33,15.90
2019,05,27,07,34,16.00
2019,05,27,07,35,16.10
2019,05,27,07,36,16.20
2019,05,27,07,37,16.30
2019,05,27,07,38,16.40
2019,05,27,07,39,16.50
2019,05,27,07,40,16.60
2019,05,27,07,41,16.70
2019,05,27,07,42,16.90
2019,05,27,07,43,17.00
2019,05,27,07,44,17.10
2019,05,27,07,45,17.30
2019,05,27,07,46,17.40
2019,05,27,07,47,17.50
2019,05,27,07,48,17.70
2019,05,27,07,49,17.80
2019,05,27,07,50,17.90
2019,05,27,07,51,18.00
2019,05,27,07,52,18.10
2019,05,27,07,53,18.20
2019,05,27,07,54,18.30
2019,05,27,07,55,18.30
2019,05,27,07,56,18.40
2019,05,27,07,57,18.50
2019,05,27,07,58,18.60
2019,05,27,07,59,18.60
2019,05,27,08,00,18.70
2019,05,27,08,01,18.80
2019,05,27,08,02,18.90
2019,05,27,08,03,19.00
2019,05,27,08,04,19.10
2019,05,27,08,05,19.20
2019,05,27,08,06,19.30
2019,05,27,08,07,19.40
2019,05,27,08,08,19.50
2019,05,27,08,09,19.70
2019,05,27,08,10,19.80
2019,05,27,08,11,19.90
2019,05,27,08,12,20.00
2019,05,27,08,13,20.10
2019,05,27,08,14,20.20
2019,05,27,08,15,20.20
2019,05,27,08,16,20.30
2019,05,27,08,17,20.30
2019,05,27,08,18,20.30
2019,05,27,08,19,20.40
2019,05,27,08,20,20.40
2019,05,27,08,21,20.40
2019,05,27,08,22,20.40
2019,05,27,08,23,20.40
2019,05,27,08,24,20.40
2019,05,27,08,25,20.40
2019,05,27,08,26,20.40
2019,05,27,08,27,20.40
2019,05,27,08,28,20.40
2019,05,27,08,29,20.40
2019,05,27,08,30,20.50
2019,05,27,08,31,20.50
2019,05,27,08,32,20.50
2019,05,27,08,33,20.40
2019,05,27,08,34,20.40
2019,05,27,08,35,20.40
2019,05,27,08,36,20.40
2019,05,27,08,37,20.40
2019,05,27,08,38,20.40
2019,05,27,08,39,20.30
2019,05,27,08,40,20.30
2019,05,27,08,41,20.30
2019,05,27,08,42,20.30
2019,05,27,08,43,20.30
2019,05,27,08,44,20.30
2019,05,27,08,45,20.30
2019,05,27,08,46,20.30
2019,05,27,08,47,20.30
2019,05,27,08,48,20.30
2019,05,27,08,49,20.30
2019,05,27,08,50,20.30
2019,05,27,08,51,20.30
2019,05,27,08,52,20.20
2019,05,27,08,53,20.20
2019,05,27,08,54,20.20
2019,05,27,08,55,20.10
2019,05,27,08,56,20.10
2019,05,27,08,57,20.10
2019,05,27,08,58,20.00
2019,05,27,08,59,19.90
2019,05,27,09,00,19.90
2019,05,27,09,01,19.80
2019,05,27,09,02,19.80
2019,05,27,09,03,19.80
2019,05,27,09,04,19.70
2019,05,27,09,05,19.70
2019,05,27,09,06,19.80
2019,05,27,09,07,19.70
2019,05,27,09,08,19.70
2019,05,27,09,09,19.70
2019,05,27,09,10,19.70
2019,05,27,09,11,19.70
2019,05,27,09,12,19.70
2019,05,27,09,13,19.70
2019,05,27,09,14,19.70
2019,05,27,09,15,19.70
2019,05,27,09,16,19.80
2019,05,27,09,17,19.80
2019,05,27,09,18,19.70
2019,05,27,09,19,19.70
2019,05,27,09,20,19.70
2019,05,27,09,21,19.60
2019,05,27,09,22,19.60
2019,05,27,09,23,19.70
2019,05,27,09,24,19.70
2019,05,27,09,25,19.80
2019,05,27,09,26,19.80
2019,05,27,09,27,19.90
2019,05,27,09,28,20.00
2019,05,27,09,29,20.10
2019,05,27,09,30,20.10
2019,05,27,09,31,20.20
2019,05,27,09,32,20.20
2019,05,27,09,33,20.30
2019,05,27,09,34,20.30
2019,05,27,09,35,20.40
2019,05,27,09,36,20.40
2019,05,27,09,37,20.50
2019,05,27,09,38,20.50
2019,05,27,09,39,20.40
2019,05,27,09,40,20.40
2019,05,27,09,41,20.30
2019,05,27,09,42,20.20
2019,05,27,09,43,20.20
2019,05,27,09,44,20.10
2019,05,27,09,45,20.00
2019,05,27,09,46,20.00
2019,05,27,09,47,20.00
2019,05,27,09,48,20.00
2019,05,27,09,49,20.00
2019,05,27,09,50,19.90
2019,05,27,09,51,19.80
2019,05,27,09,52,19.70
2019,05,27,09,53,19.70
2019,05,27,09,54,19.70
2019,05,27,09,55,19.70
2019,05,27,09,56,19.70
2019,05,27,09,57,19.80
2019,05,27,09,58,19.90
2019,05,27,09,59,19.90
2019,05,27,10,00,20.00
2019,05,27,10,01,20.00
2019,05,27,10,02,20.00
2019,05,27,10,03,20.00
2019,05,27,10,04,20.10
2019,05,27,10,05,20.20
2019,05,27,10,06,20.20
2019,05,27,10,07,20.20
2019,05,27,10,08,20.30
2019,05,27,10,09,20.30
2019,05,27,10,10,20.30
2019,05,27,10,11,20.20
2019,05,27,10,12,20.20
2019,05,27,10,13,20.20
2019,05,27,10,14,20.20
2019,05,27,10,15,20.30
2019,05,27,10,16,20.30
2019,05,27,10,17,20.40
2019,05,27,10,18,20.50
2019,05,27,10,19,20.50
2019,05,27,10,20,20.50
2019,05,27,10,21,20.50
2019,05,27,10,22,20.50
2019,05,27,10,23,20.40
2019,05,27,10,24,20.40
2019,05,27,10,25,20.50
2019,05,27,10,26,20.50
2019,05,27,10,27,20.60
2019,05,27,10,28,20.60
2019,05,27,10,29,20.60
2019,05,27,10,30,20.60
2019,05,27,10,31,20.60
2019,05,27,10,32,20.60
2019,05,27,10,33,20.60
2019,05,27,10,34,20.60
2019,05,27,10,35,20.60
2019,05,27,10,36,20.60
2019,05,27,10,37,20.60
2019,05,27,10,38,20.60
2019,05,27,10,39,20.60
2019,05,27,10,40,20.60
2019,05,27,10,41,20.70
2019,05,27,10,42,20.80
2019,05,27,10,43,20.90
2019,05,27,10,44,21.00
2019,05,27,10,45,21.10
2019,05,27,10,46,21.20
2019,05,27,10,47,21.30
2019,05,27,10,48,21.30
2019,05,27,10,49,21.40
2019,05,27,10,50,21.40
2019,05,27,10,51,21.50
2019,05,27,10,52,21.60
2019,05,27,10,53,21.60
2019,05,27,10,54,21.70
2019,05,27,10,55,21.70
2019,05,27,10,56,21.70
2019,05,27,10,57,21.70
2019,05,27,10,58,21.70
2019,05,27,10,59,21.70
2019,05,27,11,00,21.70
2019,05,27,11,01,21.70
2019,05,27,11,02,21.80
2019,05,27,11,03,21.80
2019,05,27,11,04,21.80
2019,05,27,11,05,21.70
2019,05,27,11,06,21.70
2019,05,27,11,07,21.70
2019,05,27,11,08,21.60
2019,05,27,11,09,21.60
2019,05,27,11,10,21.60
2019,05,27,11,11,21.60
2019,05,27,11,12,21.50
2019,05,27,11,13,21.50
2019,05,27,11,14,21.40
2019,05,27,11,15,21.40
2019,05,27,11,16,21.40
2019,05,27,11,17,21.30
2019,05,27,11,18,21.40
2019,05,27,11,19,21.40
2019,05,27,11,20,21.30
2019,05,27,11,21,21.30
2019,05,27,11,22,21.20
2019,05,27,11,23,21.20
2019,05,27,11,24,21.20
2019,05,27,11,25,21.20
2019,05,27,11,26,21.20
2019,05,27,11,27,21.20
2019,05,27,11,28,21.20
2019,05,27,11,29,21.20
2019,05,27,11,30,21.20
2019,05,27,11,31,21.20
2019,05,27,11,32,21.20
2019,05,27,11,33,21.30
2019,05,27,11,34,21.20
2019,05,27,11,35,21.20
2019,05,27,11,36,21.20
2019,05,27,11,37,21.20
2019,05,27,11,38,21.10
2019,05,27,11,39,21.00
2019,05,27,11,40,20.90
2019,05,27,11,41,20.80
2019,05,27,11,42,20.70
2019,05,27,11,43,20.70
2019,05,27,11,44,20.60
2019,05,27,11,45,20.60
2019,05,27,11,46,20.60
2019,05,27,11,47,20.60
2019,05,27,11,48,20.60
2019,05,27,11,49,20.70
2019,05,27,11,50,20.80
2019,05,27,11,51,20.90
2019,05,27,11,52,21.10
2019,05,27,11,53,21.20
2019,05,27,11,54,21.30
2019,05,27,11,55,21.40
2019,05,27,11,56,21.40
2019,05,27,11,57,21.40
2019,05,27,11,58,21.50
2019,05,27,11,59,21.60
2019,05,27,12,00,21.60
2019,05,27,12,01,21.60
2019,05,27,12,02,21.50
2019,05,27,12,03,21.50
2019,05,27,12,04,21.60
2019,05,27,12,05,21.70
2019,05,27,12,06,21.70
2019,05,27,12,07,21.80
2019,05,27,12,08,21.80
2019,05,27,12,09,21.80
2019,05,27,12,10,21.80
2019,05,27,12,11,21.80
2019,05,27,12,12,21.80
2019,05,27,12,13,21.80
2019,05,27,12,14,21.80
2019,05,27,12,15,21.90
2019,05,27,12,16,21.90
2019,05,27,12,17,21.90
2019,05,27,12,18,21.90
2019,05,27,12,19,22.00
2019,05,27,12,20,21.90
2019,05,27,12,21,21.90
2019,05,27,12,22,21.90
2019,05,27,12,23,21.90
2019,05,27,12,24,21.80
2019,05,27,12,25,21.80
2019,05,27,12,26,21.70
2019,05,27,12,27,21.60
2019,05,27,12,28,21.60
2019,05,27,12,29,21.60
2019,05,27,12,30,21.60
2019,05,27,12,31,21.70
2019,05,27,12,32,21.70
2019,05,27,12,33,21.80
2019,05,27,12,34,21.80
2019,05,27,12,35,21.80
2019,05,27,12,36,21.80
2019,05,27,12,37,21.80
2019,05,27,12,38,21.80
2019,05,27,12,39,21.80
2019,05,27,12,40,21.80
2019,05,27,12,41,21.80
2019,05,27,12,42,21.90
2019,05,27,12,43,21.90
2019,05,27,12,44,21.90
2019,05,27,12,45,21.90
2019,05,27,12,46,21.90
2019,05,27,12,47,21.90
2019,05,27,12,48,21.90
2019,05,27,12,49,21.90
2019,05,27,12,50,21.90
2019,05,27,12,51,21.90
2019,05,27,12,52,21.80
2019,05,27,12,53,21.80
2019,05,27,12,54,21.80
2019,05,27,12,55,21.80
2019,05,27,12,56,21.90
2019,05,27,12,57,21.90
2019,05,27,12,58,22.00
2019,05,27,12,59,22.00
2019,05,27,13,00,22.00
2019,05,27,13,01,22.00
2019,05,27,13,02,22.00
2019,05,27,13,03,22.00
2019,05,27,13,04,22.10
2019,05,27,13,05,22.10
2019,05,27,13,06,22.00
2019,05,27,13,07,21.90
2019,05,27,13,08,21.90
2019,05,27,13,09,21.90
2019,05,27,13,10,22.00
2019,05,27,13,11,22.10
2019,05,27,13,12,22.20
2019,05,27,13,13,22.20
2019,05,27,13,14,22.30
2019,05,27,13,15,22.40
2019,05,27,13,16,22.40
2019,05,27,13,17,22.40
2019,05,27,13,18,22.40
2019,05,27,13,19,22.30
2019,05,27,13,20,22.20
2019,05,27,13,21,22.20
2019,05,27,13,22,22.20
2019,05,27,13,23,22.30
2019,05,27,13,24,22.30
2019,05,27,13,25,22.20
2019,05,27,13,26,22.10
2019,05,27,13,27,22.00
2019,05,27,13,28,22.00
2019,05,27,13,29,22.10
2019,05,27,13,30,22.10
2019,05,27,13,31,22.10
2019,05,27,13,32,22.20
2019,05,27,13,33,22.20
2019,05,27,13,34,22.30
2019,05,27,13,35,22.30
2019,05,27,13,36,22.40
2019,05,27,13,37,22.40
2019,05,27,13,38,22.50
2019,05,27,13,39,22.50
2019,05,27,13,40,22.60
2019,05,27,13,41,22.70
2019,05,27,13,42,22.80
2019,05,27,13,43,22.80
2019,05,27,13,44,22.80
2019,05,27,13,45,22.80
2019,05,27,13,46,22.90
2019,05,27,13,47,22.90
2019,05,27,13,48,22.90
2019,05,27,13,49,22.90
2019,05,27,13,50,23.00
2019,05,27,13,51,23.10
2019,05,27,13,52,23.10
2019,05,27,13,53,23.20
2019,05,27,13,54,23.20
2019,05,27,13,55,23.10
2019,05,27,13,56,23.10
2019,05,27,13,57,23.00
2019,05,27,13,58,23.00
2019,05,27,13,59,22.90
2019,05,27,14,00,22.90
2019,05,27,14,01,22.80
2019,05,27,14,02,22.80
2019,05,27,14,03,22.80
2019,05,27,14,04,22.80
2019,05,27,14,05,22.80
2019,05,27,14,06,22.80
2019,05,27,14,07,22.80
2019,05,27,14,08,22.80
2019,05,27,14,09,22.80
2019,05,27,14,10,22.80
2019,05,27,14,11,22.90
2019,05,27,14,12,22.90
2019,05,27,14,13,23.00
2019,05,27,14,14,23.10
2019,05,27,14,15,23.10
2019,05,27,14,16,23.10
2019,05,27,14,17,23.10
2019,05,27,14,18,23.00
2019,05,27,14,19,23.00
2019,05,27,14,20,22.90
2019,05,27,14,21,22.90
2019,05,27,14,22,22.80
2019,05,27,14,23,22.90
2019,05,27,14,24,22.90
2019,05,27,14,25,22.90
2019,05,27,14,26,22.90
2019,05,27,14,27,22.80
2019,05,27,14,28,22.80
2019,05,27,14,29,22.80
2019,05,27,14,30,22.80
2019,05,27,14,31,22.70
2019,05,27,14,32,22.70
2019,05,27,14,33,22.70
2019,05,27,14,34,22.70
2019,05,27,14,35,22.80
2019,05,27,14,36,22.90
2019,05,27,14,37,23.10
2019,05,27,14,38,23.30
2019,05,27,14,39,23.40
2019,05,27,14,40,23.50
2019,05,27,14,41,23.50
2019,05,27,14,42,23.50
2019,05,27,14,43,23.60
2019,05,27,14,44,23.60
2019,05,27,14,45,23.60
2019,05,27,14,46,23.60
2019,05,27,14,47,23.60
2019,05,27,14,48,23.60
2019,05,27,14,49,23.60
2019,05,27,14,50,23.70
2019,05,27,14,51,23.70
2019,05,27,14,52,23.80
2019,05,27,14,53,23.90
2019,05,27,14,54,24.00
2019,05,27,14,55,24.10
2019,05,27,14,56,24.20
2019,05,27,14,57,24.30
2019,05,27,14,58,24.40
2019,05,27,14,59,24.50
2019,05,27,15,00,24.60
2019,05,27,15,01,24.70
2019,05,27,15,02,24.80
2019,05,27,15,03,24.80
2019,05,27,15,04,24.90
2019,05,27,15,05,25.00
2019,05,27,15,06,25.00
2019,05,27,15,07,25.10
2019,05,27,15,08,25.00
2019,05,27,15,09,25.00
2019,05,27,15,10,25.00
2019,05,27,15,11,25.10
2019,05,27,15,12,25.10
2019,05,27,15,13,25.20
2019,05,27,15,14,25.30
2019,05,27,15,15,25.30
2019,05,27,15,16,25.40
2019,05,27,15,17,25.40
2019,05,27,15,18,25.50
2019,05,27,15,19,25.50
2019,05,27,15,20,25.50
2019,05,27,15,21,25.50
2019,05,27,15,22,25.60
2019,05,27,15,23,25.60
2019,05,27,15,24,25.50
2019,05,27,15,25,25.50
2019,05,27,15,26,25.40
2019,05,27,15,27,25.40
2019,05,27,15,28,25.30
2019,05,27,15,29,25.30
2019,05,27,15,30,25.20
2019,05,27,15,31,25.10
2019,05,27,15,32,25.00
2019,05,27,15,33,24.90
2019,05,27,15,34,24.90
2019,05,27,15,35,24.80
2019,05,27,15,36,24.80
2019,05,27,15,37,24.90
2019,05,27,15,38,24.90
2019,05,27,15,39,25.00
2019,05,27,15,40,25.00
2019,05,27,15,41,25.00
2019,05,27,15,42,25.00
2019,05,27,15,43,25.00
2019,05,27,15,44,25.00
2019,05,27,15,45,25.00
2019,05,27,15,46,25.10
2019,05,27,15,47,25.10
2019,05,27,15,48,25.20
2019,05,27,15,49,25.30
2019,05,27,15,50,25.40
2019,05,27,15,51,25.50
2019,05,27,15,52,25.60
2019,05,27,15,53,25.60
2019,05,27,15,54,25.60
2019,05,27,15,55,25.60
2019,05,27,15,56,25.50
2019,05,27,15,57,25.40
2019,05,27,15,58,25.30
2019,05,27,15,59,25.30
2019,05,27,16,00,25.30
2019,05,27,16,01,25.30
2019,05,27,16,02,25.40
2019,05,27,16,03,25.50
2019,05,27,16,04,25.60
2019,05,27,16,05,25.60
2019,05,27,16,06,25.60
2019,05,27,16,07,25.60
2019,05,27,16,08,25.60
2019,05,27,16,09,25.60
2019,05,27,16,10,25.60
2019,05,27,16,11,25.60
2019,05,27,16,12,25.70
2019,05,27,16,13,25.70
2019,05,27,16,14,25.70
2019,05,27,16,15,25.70
2019,05,27,16,16,25.80
2019,05,27,16,17,25.80
2019,05,27,16,18,25.80
2019,05,27,16,19,25.80
2019,05,27,16,20,25.80
2019,05,27,16,21,25.80
2019,05,27,16,22,25.90
2019,05,27,16,23,26.00
2019,05,27,16,24,26.00
2019,05,27,16,25,26.10
2019,05,27,16,26,26.20
2019,05,27,16,27,26.20
2019,05,27,16,28,26.20
2019,05,27,16,29,26.30
2019,05,27,16,30,26.30
2019,05,27,16,31,26.30
2019,05,27,16,32,26.40
2019,05,27,16,33,26.40
2019,05,27,16,34,26.40
2019,05,27,16,35,26.40
2019,05,27,16,36,26.50
2019,05,27,16,37,26.50
2019,05,27,16,38,26.60
2019,05,27,16,39,26.60
2019,05,27,16,40,26.70
2019,05,27,16,41,26.70
2019,05,27,16,42,26.70
2019,05,27,16,43,26.60
2019,05,27,16,44,26.50
2019,05,27,16,45,26.40
2019,05,27,16,46,26.40
2019,05,27,16,47,26.30
2019,05,27,16,48,26.30
2019,05,27,16,49,26.40
2019,05,27,16,50,26.30
2019,05,27,16,51,26.30
2019,05,27,16,52,26.30
2019,05,27,16,53,26.20
2019,05,27,16,54,26.10
2019,05,27,16,55,26.10
2019,05,27,16,56,26.00
2019,05,27,16,57,26.00
2019,05,27,16,58,26.00
2019,05,27,16,59,26.00
2019,05,27,17,00,26.10
2019,05,27,17,01,26.10
2019,05,27,17,02,26.20
2019,05,27,17,03,26.20
2019,05,27,17,04,26.30
2019,05,27,17,05,26.40
2019,05,27,17,06,26.50
2019,05,27,17,07,26.50
2019,05,27,17,08,26.60
2019,05,27,17,09,26.70
2019,05,27,17,10,26.70
2019,05,27,17,11,26.80
2019,05,27,17,12,26.90
2019,05,27,17,13,26.90
2019,05,27,17,14,27.00
2019,05,27,17,15,27.10
2019,05,27,17,16,27.10
2019,05,27,17,17,27.10
2019,05,27,17,18,27.20
2019,05,27,17,19,27.20